Location: Newark
(48.0000°N, 67.0000°E)
Time: 23:59:25
(UTC+00:00)

DUCHIFAT 1 - Visible Passes

Search period start: 02 April 2020 00:00
Search period end: 12 April 2020 00:00
Orbit: 586 x 604 km, 97.9° (Epoch: 02 April)

Date Brightness Start Highest point End Pass type
(mag) Time Alt. Az. Time Alt. Az. Time Alt. Az.
02 Apr ? 20:43:09 10° NNE 20:44:26 19° NNE 20:44:26 19° NNE visible
02 Apr ? 22:20:04 10° NNW 22:21:06 13° NW 22:21:06 13° NW visible
03 Apr ? 20:52:45 10° NNE 20:54:16 22° NNE 20:54:16 22° NNE visible
03 Apr ? 22:30:14 10° NNW 22:30:56 11° NW 22:30:56 11° NW visible
04 Apr ? 21:02:23 10° N 21:04:06 24° N 21:04:06 24° N visible
05 Apr ? 21:12:03 10° N 21:13:56 26° N 21:13:56 26° N visible
06 Apr ? 19:47:01 10° NE 19:47:06 10° NE 19:47:06 10° NE visible
06 Apr ? 21:21:44 10° N 21:23:46 26° N 21:23:46 26° N visible
07 Apr ? 19:56:19 10° NE 19:56:56 13° NE 19:56:56 13° NE visible
07 Apr ? 21:31:27 10° N 21:33:35 26° NNW 21:33:35 26° NNW visible
08 Apr ? 20:05:42 10° NE 20:06:46 16° NE 20:06:46 16° NE visible
08 Apr ? 21:41:11 10° N 21:43:25 25° NNW 21:43:25 25° NNW visible
09 Apr ? 20:15:09 10° NNE 20:16:35 19° NE 20:16:35 19° NE visible
09 Apr ? 21:50:58 10° N 21:53:14 22° NW 21:53:14 22° NW visible
10 Apr ? 20:24:38 10° NNE 20:26:24 23° NE 20:26:24 23° NE visible
10 Apr ? 22:00:48 10° NNW 22:03:04 20° NW 22:03:04 20° NW visible
11 Apr ? 20:34:10 10° NNE 20:36:14 27° NE 20:36:14 27° NE visible
11 Apr ? 22:10:41 10° NNW 22:12:53 17° NW 22:12:53 17° NW visible
